Regional Weather Roundup
Issued by NWS Wakefield, VA

Home | Current Version | Previous Version | Graphics & Text | Print | Product List | Glossary On
Versions: 1 2 3 4 5 6 7 8 9 10 11 12 13 14 15 16 17 18 19 20 21 22 23 24 25 26 27 28 29 30 31 32 33 34 35 36 37 38 39 40 41 42 43 44 45 46 47 48 49 50
549
ASUS41 KAKQ 290715
RWRAKQ

REGIONAL WEATHER ROUNDUP
NATIONAL WEATHER SERVICE WAKEFIELD VA
300 AM EDT FRI JUL 29 2016

Note: "fair" indicates few or no clouds below 12,000 feet with no
significant weather and/or obstructions to visibility. * = Denotes
station may not report precipitation (e.g., rain,snow,etc.),
thunder or fog.

VAZ042-051-052>054-056-290800-
NORTHERN VIRGINIA

CITY           SKY/WX    TMP DP  RH WIND       PRES   REMARKS
WASH NATIONAL  LGT RAIN  78  75  90 N6        29.80F
DULLES         LGT RAIN  74  73  97 NW7       29.82F FOG
FORT BELVOIR   LGT RAIN  75  73  94 VRB1      29.79F
QUANTICO       LGT RAIN  77  74  90 N5        29.80F
FREDERICKSBRG* MOCLDY    76  76 100 W3        29.80F
STAFFORD*      DRIZZLE   74  73  96 W3        29.84F
WARRENTON      LGT RAIN  74  69  85 NW7       29.82S
CULPEPER*      LGT RAIN  73  73  98 NW5       29.85R
MANASSAS*      CLOUDY    75  75 100 NW9       29.81F
LEESBURG*      RAIN      73  73 100 N7        29.84F
WINCHESTER     RAIN      70  70 100 NW3       29.86F
FRONT ROYAL*   CLOUDY    70  70 100 CALM      29.86S
LURAY*         LGT RAIN N/A N/A N/A CALM      29.88S
$$

VAZ048-049-060>072-079>083-290800-
CENTRAL AND SOUTH CENTRAL VIRGINIA

CITY           SKY/WX    TMP DP  RH WIND       PRES   REMARKS
RICHMOND       MOCLDY    75  73  93 CALM      29.81F
CHESTERFIELD*  CLOUDY    75  64  69 CALM      29.83F
PETERSBURG*    CLOUDY   N/A N/A N/A W5        29.83R
HANOVER        MOCLDY    74  72  93 CALM      29.82F
TAPPAHANNOCK*  MOCLDY    76  76 100 CALM      29.80F
QUINTON*       FAIR      74  74  99 CALM      29.80F
CHARLOTTSVILLE LGT RAIN  74  71  91 CALM      29.86R FOG
GORDONSVILLE*  CLOUDY    73  73  99 CALM      29.85R
ORANGE*          N/A     73  73 100 CALM      29.87R
LOUISA*        CLOUDY    75  75 100 W6        29.84S FOG
BUMPASS*       CLOUDY    74  74 100 W3        29.83S
FARMVILLE*     CLOUDY   N/A N/A N/A CALM      29.85S
CREWE*         NOT AVBL
FORT PICKETT*  FAIR      74  73  98 W9        29.85R
CHASE CITY*    PTSUNNY   76  74  94 CALM      29.86F
CLARKSVILLE*   FAIR      79  73  83 CALM      29.86F
SOUTH HILL*    MOCLDY    78  73  85 CALM      29.91R
LAWRENCEVILLE* FAIR      76  74  91 CALM      29.84S
EMPORIA*       FAIR      79  72  78 W3        29.84F
$$

VAZ088>098-290800-
SOUTHEAST VIRGINIA

CITY           SKY/WX    TMP DP  RH WIND       PRES   REMARKS
NORFOLK        FAIR      83  73  72 SW8       29.80F
VIRGINIA BEACH FAIR      87  72  60 SW8       29.80F
NORFOLK NAVAL  FAIR      84  72  67 SW5       29.82F
WEST POINT*    FAIR      74  73  96 SE3       29.81F
SALUDA*        FAIR      74  74 100 CALM      29.79F
NEWPORT NEWS   FAIR      80  76  87 E3        29.80F
LANGLEY AFB    NOT AVBL
FORT EUSTIS    FAIR      81  76  86 CALM      29.78F
WILLIAMSBURG*  FAIR      79  75  89 CALM      29.81F
HR EXEC AP*    FAIR      81  72  74 SW7       29.84S
FRANKLIN*      FAIR      81  71  71 SW10      29.82F
US460-WAKEFLD  FAIR      80  72  76 SW5       29.81F
$$

VAZ020-022-025-037-045-290800-
WEST CENTRAL AND SOUTHWEST VIRGINIA

CITY           SKY/WX    TMP DP  RH WIND       PRES   REMARKS
STAUNTON*      RAIN      70  69  98 CALM      29.92S
WAYNESBORO*    CLOUDY    70  68  95 NW6       29.91F
HOT SPRINGS VA NOT AVBL
LYNCHBURG      CLOUDY    72  72 100 SE5       29.89F
DANVILLE       MOCLDY    78  72  81 W3        29.88S
SOUTH BOSTON*  PTSUNNY  N/A N/A N/A CALM      29.86F
MARTINSVILLE   MOCLDY    73  71  93 CALM      29.92F
ROANOKE        FAIR      72  70  93 W6        29.92F
BLACKSBURG     CLOUDY    69  69  99 CALM      29.99F
DUBLIN*        CLOUDY    71  69  94 NW5       29.99S
MARION*        CLOUDY    69  67  94 W6        30.03S
HILLSVILLE*    FAIR      67  67 100 NW6       30.00S
RICHLANDS*     CLOUDY    66  66 100 W5        30.03S FOG
WISE*          FOG       66  64  94 CALM      30.05S VSB 1/2
ABINGDON*      CLOUDY    70  70 100 W5        30.01S FOG
$$

MDZ021>025-VAZ099-100-290800-
SOUTHERN MARYLAND AND THE DELMARVA PENINSULA

CITY           SKY/WX    TMP DP  RH WIND       PRES   REMARKS
PATUXENT RIVER CLOUDY    76  73  91 CALM      29.76F THUNDER
BAY BRIDGE APT CLOUDY    73  73 100 E5        29.79F
LEONARDTOWN    CLOUDY    73  72  94 CALM      29.78F
DOVER          DRIZZLE   75  75 100 W2        29.79F
GEORGETOWN     LGT RAIN  74  72  93 N5        29.81F
EASTON         CLOUDY    75  75 100 E5        29.83F
CAMBRIDGE      CLOUDY    72  72 100 CALM      29.79F
SALISBURY      NOT AVBL
OCEAN CITY       N/A    N/A N/A N/A MISG      29.77F
WALLOPS ISLAND FAIR      76  74  93 CALM      29.79F
ACCOMACK*      FAIR      72  70  94 E5        29.79F
$$

NCZ012>017-030>032-290800-
NORTH CENTRAL AND EASTERN NORTH CAROLINA

CITY           SKY/WX    TMP DP  RH WIND       PRES   REMARKS
ROANOKE RAPIDS FAIR      79  72  78 SW8       29.84F
RALEIGH        CLEAR     77  70  79 W5        29.87F
ELIZABETH CITY PTCLDY    82  73  74 SW10      29.83F
AHOSKIE*       CLEAR     78  72  81 S3        29.84S
EDENTON*       PTCLDY    85  72  64 SW9       29.86S
CURRITUCK*     PTCLDY    82  75  78 S3        29.84F
KILL DEVIL HLS PTCLDY    84  75  74 SW7       29.84F
MANTEO           N/A     83  78  85 SW10      29.87F
CAPE HATTERAS  CLEAR     81  78  91 SW8       29.90S
TARBORO*       FAIR      80  73  77 S5        29.86F
GOLDSBORO      CLEAR     82  77  87 SW9       29.86F
WASHINGTON     CLEAR     80  74  82 SW7       29.88S
GREENVILLE     CLEAR     81  77  89 SW9       29.89F
NEW BERN       CLEAR     80  74  81 SW5       29.90S
WILMINGTON     CLEAR     82  76  81 SW9       29.91F
$$

VAZ048-290800-
ELSEWHERE

CITY           SKY/WX    TMP DP  RH WIND       PRES   REMARKS
HARRISBURG PA  RAIN      74  74 100 N6        29.85F FOG
BALTIMORE      LGT RAIN  75  73  93 N7        29.80F FOG
ANNAPOLIS      LGT RAIN  76  74  93 N5        29.78F
ANDREWS AFB    LGT RAIN  75  73  94 E3        29.80F
PHILADELPHIA   CLOUDY    75  72  90 NE3       29.82F
GREENSBORO     PTCLDY    79  66  64 CALM      29.89S
ROCKY MOUNT    PTCLDY    79  73  82 S6        29.86F
$$

VAZ100-290800-
MARINE

STATION/POSITION TIME  TEMP    WIND        PRES    WAVE   SWELL
                       AIR SEA DIR/SP/G            HT/PER HT/PER
                 (UTC) (F)     (DEG/KT/KT) (MB)    (FT/S) (FT/S)
BRANDYWINE LGT   0600   76      30/  4/  5   N/A
CAPE MAY NJ      0600   73 71  110/  4/  5 1009.4F
LEWES DE         0600   75 71   10/  2/  3 1009.5F
OCEAN-CITY-INLET 0600   75 76  260/  9/ 12 1010.6R
WACHAPREAGUE VA  0600   73 86  240/  2/  3 1009.8F
THOMAS POINT MD  0700   76 84  110/  9/ 10 1009.8F
GOOSES REEF MD   0700   79 85  210/  8/ 16 1009.4F   1/ 2
COVE POINT MD    0600   78     180/ 14/ 16 1009.7F
SOLOMONS ISLAND  0600   77 85  160/  4/  7   N/A
BISHOPS HEAD MD  0600   78     160/  5/  7 1009.3F
PINEY POINT MD   0600          190/ 17/ 19   N/A
POTOMAC MD       0700   80 85  230/ 10/ 12 1007.2F   1/ 4
CAMBRIDGE MD     0600   75 88  110/  3/  8 1008.6F
LEWISETTA VA     0600   76 87  190/ 11/ 13 1009.3F
RAPPAHANNOCK LGT 0600          100/  4/  5 1010.3F
STINGRAY PT      0600   80 86  350/  6/ 10 1010.3F   1/ 2
YORK RVR RNG VA  0600   80      70/ 12/ 13 1009.5F
YORKTOWN VA      0600   80 86   90/  4/  7 1009.6F
JAMESTOWN VA     0700   81 89   80/  6/ 10   N/A
DOMINION TERM VA 0600   87     260/ 10/ 13 1009.9S
KIPTOPEKE VA     0600      78   80/  5/  6   N/A
CHES BAY BRIDGE  0600   85 82  210/ 11/ 14 1009.6S
CAPE HENRY VA    0600   84     210/  8/ 11   N/A
WILLOUBY STN VA  0600   86     310/  7/  9   N/A
CAPE HENRY BUOY  0612      79                N/A     2/ 4
1ST LANDING BUOY 0700   84 80  250/  8/ 10 1008.9F   1/ 3
CAPE CHARLES BUO 0626      74                N/A     2/ 4
OFFSHORE WE BUOY 0621      83                N/A     2/ 4
64NM E OF VA BCH 0650   83 81  210/ 14/ 16 1009.8F   3/ 5   2/ 7
DUCK PIER NC     0600   85 68  220/ 13/ 16 1010.5R
44100 DUCK FRF   0605      80                N/A     2/ 3
44056 DUCK FRF   0611      74                N/A     1/ 7
OREGON INLET NC  0600   85 82  210/  9/ 11 1011.7R
HATTERAS NC      0600   82 84  220/ 10/ 12 1012.0R
DIAMOND SHLS NC  0650   85 85  240/ 16/ 19 1012.2S   4/ 5   2/11
CAPE LOOKOUT NC  0700   84     240/ 12/ 16 1012.2R
$$




USA.gov is the U.S. government's official web portal to all federal, state and local government web resources and services.